Location: Shenandoah County Park
(38.9356°N, 78.4524°W)
Time: 12:09:31
(UTC-04:00)

Courier 1B Rocket - All Passes

Search period start: 14 July 2024 00:00
Search period end: 24 July 2024 00:00
Orbit: 920 x 1201 km, 28.2° (Epoch: 13 July)

Date Brightness Start Highest point End Pass type
(mag) Time Alt. Az. Time Alt. Az. Time Alt. Az.
14 Jul - 17:11:36 10° SSW 17:16:36 19° SSE 17:21:25 10° ESE daylight
14 Jul - 19:03:02 10° SW 19:09:26 32° S 19:15:29 10° ESE daylight
14 Jul - 20:56:04 10° WSW 21:02:21 33° S 21:08:14 10° SE visible
14 Jul - 22:50:06 10° WSW 22:55:00 21° SSW 22:59:41 10° SSE visible
15 Jul - 16:11:46 10° S 16:15:34 14° SSE 16:19:17 10° SE daylight
15 Jul - 18:02:04 10° SW 18:08:21 28° SSE 18:14:21 10° ESE daylight
15 Jul - 19:54:45 10° WSW 20:01:18 35° S 20:07:27 10° ESE daylight
15 Jul - 21:48:25 10° WSW 21:54:05 26° SSW 21:59:28 10° SE visible
15 Jul - 23:44:43 10° SW 23:46:31 11° SSW 23:48:18 10° SSW visible
16 Jul - 17:01:19 10° SSW 17:07:15 24° SSE 17:12:59 10° ESE daylight
16 Jul - 18:53:30 10° WSW 19:00:11 35° S 19:06:31 10° ESE daylight
16 Jul - 20:46:53 10° WSW 20:53:07 31° S 20:58:59 10° SE daylight
16 Jul - 22:41:37 10° WSW 22:45:41 16° SSW 22:49:37 10° SSE visible
17 Jul - 16:00:54 10° SSW 16:06:10 20° SSE 16:11:21 10° ESE daylight
17 Jul - 17:52:22 10° SW 17:59:04 33° S 18:05:28 10° ESE daylight
17 Jul - 19:45:27 10° WSW 19:52:04 34° S 19:58:17 10° ESE daylight
17 Jul - 21:39:34 10° WSW 21:44:48 22° SSW 21:49:49 10° SSE visible
18 Jul - 15:01:03 10° S 15:05:07 15° SSE 15:09:10 10° ESE daylight
18 Jul - 16:51:24 10° SW 16:57:55 30° SSE 17:04:14 10° ESE daylight
18 Jul - 18:44:06 10° WSW 18:50:57 36° S 18:57:27 10° ESE daylight
18 Jul - 20:37:49 10° WSW 20:43:51 27° SSW 20:49:33 10° SE daylight
18 Jul - 22:33:56 10° SW 22:36:19 12° SSW 22:38:39 10° S visible
19 Jul - 14:03:15 10° SSE 14:04:06 10° SSE 14:04:57 10° SE daylight
19 Jul - 15:50:41 10° SSW 15:56:47 25° SSE 16:02:48 10° ESE daylight
19 Jul - 17:42:51 10° WSW 17:49:47 36° S 17:56:27 10° ESE daylight
19 Jul - 19:36:15 10° WSW 19:42:48 32° S 19:49:00 10° SE daylight
19 Jul - 21:30:59 10° WSW 21:35:27 17° SSW 21:39:45 10° SSE visible
20 Jul - 14:50:18 10° SSW 14:55:42 20° SSE 15:01:04 10° ESE daylight
20 Jul - 16:41:45 10° SW 16:48:36 34° S 16:55:17 10° ESE daylight
20 Jul - 18:34:49 10° WSW 18:41:41 36° S 18:48:15 10° ESE daylight
20 Jul - 20:28:55 10° WSW 20:34:31 23° SSW 20:39:52 10° SSE daylight
21 Jul - 13:50:30 10° S 13:54:39 15° SSE 13:58:48 10° ESE daylight
21 Jul - 15:40:50 10° SW 15:47:26 30° SSE 15:53:58 10° ESE daylight
21 Jul - 17:33:29 10° WSW 17:40:31 37° S 17:47:18 10° ESE daylight
21 Jul - 19:27:11 10° WSW 19:33:30 28° SSW 19:39:32 10° SE daylight
21 Jul - 21:23:07 10° SW 21:26:03 13° SSW 21:28:55 10° S visible
22 Jul - 12:52:48 10° SSE 12:53:40 10° SSE 12:54:32 10° SE daylight
22 Jul - 14:40:10 10° SSW 14:46:18 26° SSE 14:52:27 10° ESE daylight
22 Jul - 16:32:17 10° WSW 16:39:18 37° S 16:46:12 10° ESE daylight
22 Jul - 18:25:38 10° WSW 18:32:23 33° S 18:38:54 10° SE daylight
22 Jul - 20:20:19 10° WSW 20:25:08 18° SSW 20:29:47 10° SSE daylight
23 Jul - 13:39:53 10° SSW 13:45:13 20° SSE 13:50:37 10° ESE daylight
23 Jul - 15:31:15 10° SW 15:38:06 34° S 15:44:58 10° ESE daylight
23 Jul - 17:24:13 10° WSW 17:31:13 36° S 17:38:02 10° ESE daylight
23 Jul - 19:18:17 10° WSW 19:24:08 24° SSW 19:29:47 10° SSE daylight
